This demonstration page uses our WeatherBlox Daily Observations layout. Learn more.

Left ArrowRight Arrow

Hourly Observations for October 14, 2018

Temp ( °F °C ) Dew Point ( °F °C ) Humidity (%) Winds ( mph kmh ) Pressure ( in mb ) Visibility ( mi km ) Precip ( " mm )
12:04 am 00:04 Cloudy 48 9 45 7 87 87 NNE 15 24 29.94 1014 10 16 0.00 0.00
12:26 am 00:26 Cloudy 46 8 45 7 93 93 NNE 20 31 29.94 1014 10 16 0.00 0.00
12:53 am 00:53 Cloudy 44 6.7 42 5.6 93 93 NNE 18 30 29.92 1013 10 16 0.00 0.00
1:53 am 01:53 Cloudy 42 5.6 39 3.9 89 89 NNE 22 35 29.94 1014 10 16 0.00 0.00
2:53 am 02:53 Cloudy 40 4.4 38 3.3 93 93 NNE 20 31 29.96 1015 10 16 0.00 0.00
3:53 am 03:53 Cloudy 39 3.9 37 2.8 93 93 NNE 21 33 29.98 1015 9 14 0.00 0.00
4:07 am 04:07 Cloudy with Light Rain 39 3.9 36 2.2 89 89 NNE 22 35 30.06 1018 5 8 0.00 0.03
4:40 am 04:40 Windy with Snow Likely 37 2.8 35 1.7 93 93 N 26 43 30.06 1018 2 3 0.00 0.03
4:48 am 04:48 Windy with Snow Likely 37 3 36 2 93 93 N 21 33 30.09 1019 3 4 0.00 0.00
4:53 am 04:53 Windy with Snow Likely 37 2.8 35 1.7 93 93 N 26 43 30.03 1017 3 4 0.00 0.03
5:06 am 05:06 Windy with Snow Likely 35 1.7 33 0.6 93 93 N 28 44 30.12 1020 3 4 0.00 0.03
5:09 am 05:09 Cloudy with Light Rain 36 2 34 1 93 93 N 24 39 30.12 1020 3 5 0.00 0.00
5:25 am 05:25 Cloudy with Light Rain 35 1.7 33 0.6 93 93 N 26 43 30.15 1021 3 5 0.00 0.03
5:32 am 05:32 Cloudy with Light Rain 36 2 34 1 93 93 N 25 41 30.15 1021 3 5 0.00 0.00
5:53 am 05:53 Cloudy with Mist and Fog 34 1.1 31 -0.6 89 89 N 23 37 30.07 1018 4 6 0.00 0.03
6:53 am 06:53 Cloudy with Light Wintry Mix 33 0.6 30 -1.1 89 89 N 26 43 30.10 1019 9 14 0.00 0.03
7:20 am 07:20 Cloudy with Light Wintry Mix 34 1 28 -2 81 81 N 28 44 30.18 1022 9 14 0.00 0.00
7:53 am 07:53 Windy with Snow Likely 32 0 28 -2.2 85 85 N 28 44 30.16 1021 5 8 0.01 0.25
8:20 am 08:20 Cloudy with Light Wintry Mix 30 -1 28 -2 93 93 N 20 31 30.21 1023 7 11 0.00 0.00
8:37 am 08:37 Windy with Snow Likely 31 -0.6 28 -2.2 89 89 N 22 35 30.24 1024 4 6 0.00 0.03
8:46 am 08:46 Windy with Snow Likely 30 -1 28 -2 93 93 N 22 35 30.24 1024 3 4 0.00 0.00
8:48 am 08:48 Cloudy with Light Wintry Mix 30 -1 28 -2 93 93 N 21 33 30.24 1024 3 5 0.00 0.00
8:53 am 08:53 Cloudy with Light Wintry Mix 31 -0.6 28 -2.2 89 89 N 26 43 30.19 1022 3 5 0.00 0.03
9:05 am 09:05 Cloudy with Mist and Fog 31 -0.6 28 -2.2 89 89 N 17 28 30.27 1025 5 8 0.00 0.03
9:19 am 09:19 Windy with Snow Likely 31 -0.6 28 -2.2 89 89 N 22 35 30.27 1025 2 3 0.00 0.03
9:29 am 09:29 Cloudy with Light Snow 31 -0.6 29 -1.7 92 92 N 17 28 30.27 1025 1 2 0.00 0.03
9:31 am 09:31 Windy with Snow Likely 31 -0.6 29 -1.7 92 92 N 20 31 30.27 1025 1 2 0.00 0.03
9:40 am 09:40 Windy with Snow Likely 30 -1 28 -2 93 93 N 23 37 30.27 1025 1 1 0.00 0.00
9:44 am 09:44 Cloudy with Snow 30 -1 28 -2 93 93 N 23 37 30.27 1025 1 1 0.00 0.00
9:53 am 09:53 Cloudy with Heavy Snow 30 -1.1 28 -2.2 92 92 N 22 35 30.22 1023 0 0 0.00 0.03
10:35 am 10:35 Cloudy with Light Snow 30 -1.1 27 -2.8 88 88 N 18 30 30.27 1025 1 1 0.01 0.25
10:42 am 10:42 Cloudy with Light Snow 30 -1 27 -3 86 86 N 16 26 30.27 1025 1 2 0.00 0.00
10:53 am 10:53 Windy with Snow Likely 30 -1.1 27 -2.8 88 88 N 21 33 30.23 1024 1 2 0.01 0.25
11:07 am 11:07 Cloudy with Light Snow 30 -1.1 28 -2.2 92 92 N 18 30 30.27 1025 1 1 0.00 0.03
11:11 am 11:11 Cloudy with Light Snow 30 -1 28 -2 93 93 N 14 22 30.30 1026 1 2 0.00 0.00
11:19 am 11:19 Cloudy with Light Snow 31 -0.6 28 -2.2 89 89 N 18 30 30.30 1026 2 3 0.01 0.25
11:25 am 11:25 Windy with Snow Likely 31 -0.6 27 -2.8 85 85 N 21 33 30.30 1026 3 5 0.01 0.25
11:32 am 11:32 Windy with Snow Likely 30 -1 27 -3 86 86 N 22 35 30.30 1026 4 6 0.00 0.00
11:53 am 11:53 Cloudy 32 0 25 -3.9 75 75 N 21 33 30.25 1024 10 16 0.01 0.25
12:42 pm 12:42 Cloudy 32 0 27 -3 80 80 N 22 35 30.30 1026 10 16 0.00 0.00
12:53 pm 12:53 Cloudy 32 0 26 -3.3 79 79 N 21 33 30.24 1024 10 16 0.00 0.00
1:53 pm 13:53 Cloudy 33 0.6 26 -3.3 75 75 N 21 33 30.27 1025 10 16 0.00 0.00
2:53 pm 14:53 Cloudy 33 0.6 26 -3.3 75 75 N 21 33 30.26 1025 10 16 0.00 0.00
3:53 pm 15:53 Cloudy 34 1.1 26 -3.3 73 73 N 22 35 30.24 1024 10 16 0.00 0.00
4:53 pm 16:53 Cloudy 33 0.6 25 -3.9 72 72 N 22 35 30.27 1025 10 16 0.00 0.00
5:32 pm 17:32 Cloudy 34 1 25 -4 70 70 N 20 31 30.30 1026 10 16 0.00 0.00
5:53 pm 17:53 Cloudy 32 0 24 -4.4 73 73 N 20 31 30.31 1026 10 16 0.00 0.00
6:53 pm 18:53 Cloudy 32 0 23 -5 69 69 N 17 28 30.31 1027 10 16 0.00 0.00
7:53 pm 19:53 Cloudy 31 -0.6 23 -5 72 72 NNW 16 26 30.34 1028 10 16 0.00 0.00
8:53 pm 20:53 Cloudy 31 -0.6 23 -5 72 72 NNW 17 28 30.36 1028 10 16 0.00 0.00
9:53 pm 21:53 Cloudy 31 -0.6 23 -5 72 72 NNW 15 24 30.40 1029 10 16 0.00 0.00
10:16 pm 22:16 Cloudy 30 -1 25 -4 80 80 NNW 15 24 30.42 1030 10 16 0.00 0.00
10:53 pm 22:53 Cloudy 31 -0.6 23 -5 72 72 NNW 13 20 30.41 1030 10 16 0.00 0.00
11:53 pm 23:53 Cloudy 31 -0.6 22 -5.6 69 69 NNW 12 19 30.42 1030 10 16 0.00 0.00

Powered by AerisWeather